Flag Weather past 2 weeks in Limburg an der Lahn, Hesse, Germany

Now
32 °F

Fog.


Feels Like: 22 °F
Forecast: 32 / 42 °F
Wind: 15 mph from Southeast

Location: Hessen

Current Time: Nov 27, 2014 at 10:35:03 AM

Latest Report: Nov 27, 2014 at 9:50 AM


Visibility: 0 mi

Pressure: 29.80 "Hg

Humidity: 100%

Dew point: 32 °F

Location of Limburg an der LahnLocation

Historic Weather in Limburg an der Lahn — Graph

°F

Limburg an der Lahn temperature yesterday

Maximum temperature yesterday: 34 °F (at 2:20 PM)
Minimum temperature yesterday: 30 °F (at 7:50 AM)
Average temperature yesterday: 32 °F

Past Weeks' High & Low Weather Summary

 TemperatureHumidityPressure
High55 °F (Nov 12, 11:20 AM)100% (Nov 12, 9:20 AM)30.30 "Hg (Nov 12, 9:20 AM)
Low30 °F (Nov 26, 7:50 AM)72% (Nov 12, 11:20 AM)29.50 "Hg (Nov 16, 7:50 AM)
Average41 °F98%29.94 "Hg
* Reported Nov 12 9:20 AM — Nov 27 9:20 AM, Limburg an der Lahn, Weather by CustomWeather, © 2014

Note: Actual official high and low records may vary slightly from our data, if they occured in-between our weather recording intervals... More about our weather records

Advertising

Limburg an der Lahn weather history for previous 24 hours

 ConditionsComfort  
Time TempWeatherWind HumidityBarometerVisibility
9:20 AM
Nov 27
32 °FFog.15 mph100%29.80 "Hg0 mi
8:50 AM32 °FFog.16 mph100%29.80 "Hg0 mi
8:20 AM32 °FFog.15 mph100%29.80 "Hg0 mi
7:50 AM32 °FFog.14 mph100%29.80 "Hg0 mi
7:20 AM32 °FFog.14 mph100%29.80 "Hg0 mi
8:50 PM
Nov 26
32 °FPartly cloudy.17 mph100%29.92 "Hg4 mi
8:20 PM32 °FPartly cloudy.17 mph100%29.92 "Hg5 mi
7:50 PM32 °FPartly cloudy.20 mph100%29.92 "Hg5 mi
7:20 PM34 °FPartly cloudy.16 mph100%29.95 "Hg4 mi
6:50 PM34 °FPartly cloudy.20 mph100%29.95 "Hg4 mi
6:20 PM34 °FPartly cloudy.18 mph100%29.92 "Hg3 mi
5:50 PM34 °FFog.20 mph100%29.92 "Hg2 mi
5:20 PM32 °FIce fog.20 mph100%29.92 "Hg2 mi
4:50 PM34 °FFog.20 mph100%29.92 "Hg2 mi
4:20 PM34 °FLight rain. Fog.20 mph100%29.95 "Hg2 mi
3:50 PM32 °FLight rain. Ice fog.17 mph100%29.95 "Hg2 mi
3:20 PM34 °FLight rain. Fog.21 mph93%29.95 "Hg2 mi
2:50 PM34 °FLight rain. Partly sunny.17 mph93%29.95 "Hg5 mi
2:20 PM34 °FPartly sunny.17 mph93%29.95 "Hg5 mi
1:50 PM32 °FDrizzle. Low clouds.17 mph100%29.95 "Hg5 mi
1:20 PM32 °FPartly sunny.18 mph100%29.95 "Hg5 mi
12:50 PM32 °FLow clouds.22 mph100%29.98 "Hg4 mi
12:20 PM32 °FLow clouds.21 mph100%29.98 "Hg4 mi
11:50 AM32 °FLow clouds.23 mph100%29.98 "Hg4 mi
11:20 AM32 °FLow clouds.26 mph93%29.98 "Hg4 mi
10:50 AM32 °FLow clouds.24 mph93%29.98 "Hg4 mi
10:20 AM32 °FIce fog.24 mph93%30.01 "Hg3 mi
Weather by CustomWeather, © 2014

See weather overviewHow to use our weather pages